STARLINK-33605, 63074

Orbit data source: Space-Track

STARLINK-33605, 63074 is a payload satellite owned by SpaceX/Seattle (US) in LEO that was launched on Fri, 21 Feb 2025 UTC via an FALCON 9 launch vehicle from the Air Force Eastern Test Range (AFETR). Payload-class satellites include a variety of spacecraft equipped with specific instruments for various scientific and technological missions. These include communications satellites like Starlink; space stations such as the ISS; scientific satellites like the Hubble; Earth observation satellites from companies like Planet Labs, Umbra, and HawkEye 360; GPS; miniature CubeSats for education and research; and military/defense satellites.

Loading next visibility...
Identifier
63074, 2025-035Y
Orbit
LEO
Country
Flag of USUS
Related business
Manufacturer
SpaceX/Seattle
Mission
Operational Commercial Communications
Bus & Motor
STARLINK V2MO, Unknown motor
Mass
575 kg wet, ~530 kg dry
Launch date (UTC)
2025-02-21 (1 year ago)
Launch vehicle
FALCON 9
Launch site
Air Force Eastern Test Range (AFETR)
Object type
Payload
Rocket body
Debris
Shape & HBR
Box + 2 Pan, 17.7 m
Radar Cross Section
36.964 m², Large (>1 m²)

Expand to show TLE details & history
Last TLE update: 12 hours ago

TLE from 12 hours ago
0 STARLINK-33605
1 63074U 25035Y   26171.35819815  .00021833  00000-0  80028-3 0  9990
2 63074  42.9998 287.0764 0000980 253.9225 106.1519 15.27592174 75426
Epoch: 2026-06-20T08:35Z
TLE epoch observation values (Epoch: 2026-06-20T08:35:48.320Z)
Latitude
0.00001°
Longitude
-110.44889°
Altitude
482.975 km
Speed
7.626 km/s
True Right ascension
19h 08m 18s
True Declination
0° 00' 00"
Sunlit
Object was in full shadow at epoch
Visualization orbit readout
Latitude
Unknown
Longitude
Unknown
Altitude
Unknown
Speed
Unknown
Apparent Right ascension
Unknown
Apparent Declination
Unknown
Sunlit
N/A
Visualization observer readout
Local Sidereal Time
07:17:15
Azimuth
Unknown
Elevation
Unknown
Doppler factor
Unknown
Orbital elements
Apogee altitude
485.63 km
Perigee altitude
484.285 km
Semi-major axis
6,863.095 km
Eccentricity
0.0001
Inclination
42.9998°
RAAN
287.0764°
Arg. of periapsis
253.9225°
True anomaly
106.16269°
Mean anomaly
106.1519°
Eccentric anomaly
106.15729°
Mean motion
3.81736 °/min
Orbital period
94.31 mins
BSTAR
0.00080028
Loading maneuver chart data...
Computing Atmospheric mass density...
Loading historical data...
Loading historical data...
Loading historical data...
Loading historical data...
Loading historical data...
Loading historical data...
Loading historical data...

Documentation

Showing up to 5 results
|